GW6386 Weather Reports


Display with metric or nautical units.
time (UTC)temp
F
wind
direction
speed
MPH
gust
MPH
rain 1hr
in
rain 24hr
in
rain mn
in
humidity
%
barometer
mb
20260507134443 53 222 3.0 11.0 0.00 0.00 0.00 70 815.9
20260507133944 52 199 2.0 11.0 0.00 0.00 0.00 72 821.7
20260507132928 51 232 2.0 11.0 0.00 0.00 0.00 73 847.8
20260507132428 51 219 2.0 11.0 0.00 0.00 0.00 75 857.1
20260507131928 51 222 2.0 11.0 0.00 0.00 0.00 77 883.1
20260507131428 50 222 2.0 11.0 0.00 0.00 0.00 79 937.1
20260507130413 48 265 2.0 11.0 0.00 0.00 0.00 82 1098.8
20260507125357 47 333 1.0 11.0 0.00 0.00 0.00 84 1153.1
20260507124857 46 333 1.0 11.0 0.00 0.00 0.00 85 1152.0
20260507124356 46 333 1.0 11.0 0.00 0.00 0.00 86 1148.1
20260507123856 45 334 1.0 11.0 0.00 0.00 0.00 86 1141.6
20260507123355 45 334 1.0 11.0 0.00 0.00 0.00 86 1129.5
20260507122855 44 334 1.0 11.0 0.00 0.00 0.00 87 1107.6
20260507122355 44 338 1.0 11.0 0.00 0.00 0.00 87 1067.5
20260507121854 43 342 1.0 11.0 0.00 0.00 0.00 88 976.9
20260507121353 43 353 1.0 11.0 0.00 0.00 0.00 88 801.4
20260507120852 43 0 1.0 11.0 0.00 0.00 0.00 88 420.9
20260507120351 42 0 0.0 11.0 0.00 0.00 0.00 88 152.1
20260507115850 42 0 0.0 11.0 0.00 0.00 0.00 89 152.2
20260507115350 42 0 0.0 11.0 0.00 0.00 0.00 89 152.1
20260507114849 42 0 0.0 11.0 0.00 0.00 0.00 89 152.4
20260507114348 42 0 0.0 11.0 0.00 0.00 0.00 89 152.5
20260507113331 41 0 0.0 11.0 0.00 0.00 0.00 89 152.2
20260507112830 41 0 0.0 11.0 0.00 0.00 0.00 89 152.4
20260507112329 41 0 0.0 11.0 0.00 0.00 0.00 90 152.2
20260507111828 41 0 0.0 11.0 0.00 0.00 0.00 90 152.0
20260507111327 41 0 0.0 11.0 0.00 0.00 0.00 90 151.7
20260507110826 41 0 0.0 11.0 0.00 0.00 0.00 90 151.7
20260507105809 42 0 0.0 11.0 0.00 0.00 0.00 90 151.6
20260507104752 42 0 0.0 11.0 0.00 0.00 0.00 89 151.9
20260507104251 42 0 0.0 11.0 0.00 0.00 0.00 89 152.0
20260507103750 42 0 0.0 11.0 0.00 0.00 0.00 89 151.8
20260507103250 42 0 0.0 11.0 0.00 0.00 0.00 89 151.8
20260507102749 42 0 0.0 11.0 0.00 0.00 0.00 89 151.7
20260507102249 42 0 0.0 11.0 0.00 0.00 0.00 88 151.8
20260507101748 42 0 0.0 11.0 0.00 0.00 0.00 88 152.2
20260507101247 42 0 0.0 11.0 0.00 0.00 0.00 88 152.3
20260507095200 42 0 0.0 11.0 0.00 0.00 0.00 89 152.3
20260507094144 42 0 0.0 11.0 0.00 0.00 0.00 89 152.1
20260507093643 42 0 0.0 11.0 0.00 0.00 0.00 90 151.8
20260507093143 42 0 0.0 11.0 0.00 0.00 0.00 90 151.7
20260507092643 42 0 0.0 11.0 0.00 0.00 0.00 90 151.9
20260507092141 42 0 0.0 11.0 0.00 0.00 0.00 90 152.0
20260507091641 42 0 0.0 11.0 0.00 0.00 0.00 89 152.0
20260507091140 43 0 0.0 11.0 0.00 0.00 0.00 89 152.0
20260507090639 43 0 0.0 11.0 0.00 0.00 0.00 89 152.0
20260507090138 43 0 0.0 11.0 0.00 0.00 0.00 89 151.8
20260507085637 43 0 0.0 11.0 0.00 0.00 0.00 89 151.6
20260507085136 43 0 0.0 11.0 0.00 0.00 0.00 88 151.8
20260507084120 43 0 0.0 11.0 0.00 0.00 0.00 88 152.1
20260507083619 43 0 0.0 11.0 0.00 0.00 0.00 88 152.1
20260507083119 43 0 0.0 11.0 0.00 0.00 0.00 88 152.3
20260507082618 43 0 0.0 11.0 0.00 0.00 0.00 89 152.3
20260507082118 43 0 0.0 11.0 0.00 0.00 0.00 89 152.0
20260507081617 44 0 1.0 11.0 0.00 0.00 0.00 89 152.0
20260507081116 44 0 0.0 11.0 0.00 0.00 0.00 89 152.0
20260507080616 44 0 0.0 11.0 0.00 0.00 0.00 89 151.8
20260507075559 44 0 0.0 11.0 0.00 0.00 0.00 88 151.8
20260507074544 44 0 1.0 11.0 0.00 0.00 0.00 88 151.5
20260507073528 44 0 0.0 11.0 0.00 0.00 0.00 89 151.7
20260507073028 44 0 0.0 11.0 0.00 0.00 0.00 89 151.8
20260507072528 44 0 0.0 11.0 0.00 0.00 0.00 89 151.8
20260507072027 44 0 0.0 11.0 0.00 0.00 0.00 89 152.0
20260507071010 44 0 0.0 11.0 0.00 0.00 0.00 89 153.0
20260507070509 44 0 0.0 11.0 0.00 0.00 0.00 89 152.8
20260507070011 44 0 0.0 11.0 0.00 0.00 0.00 89 152.5
20260507065507 44 0 0.0 11.0 0.00 0.00 0.00 88 152.3
20260507065007 44 0 0.0 11.0 0.00 0.00 0.00 88 152.2
20260507064507 44 0 0.0 11.0 0.00 0.00 0.00 88 152.0
20260507064006 44 0 0.0 11.0 0.00 0.00 0.00 88 152.0
20260507063506 44 0 0.0 11.0 0.00 0.00 0.00 88 151.9
20260507062459 44 0 0.0 11.0 0.00 0.00 0.00 87 152.1
20260507061959 44 0 0.0 11.0 0.00 0.00 0.00 87 152.1
20260507060943 44 0 0.0 11.0 0.00 0.00 0.00 86 152.1
20260507060442 44 0 0.0 11.0 0.00 0.00 0.00 86 152.2
20260507055425 45 0 0.0 11.0 0.00 0.00 0.00 86 152.2
20260507054924 45 0 0.0 11.0 0.00 0.00 0.00 86 152.1
20260507053908 45 0 0.0 11.0 0.00 0.00 0.00 85 152.2
20260507052850 45 0 0.0 11.0 0.00 0.00 0.00 85 152.2
20260507052349 45 0 0.0 11.0 0.00 0.00 0.00 85 152.2
20260507051848 45 0 0.0 11.0 0.00 0.00 0.00 85 152.0
20260507051347 45 0 0.0 11.0 0.00 0.00 0.00 84 152.1
20260507050846 45 0 0.0 11.0 0.00 0.00 0.00 84 152.1
20260507050345 45 0 0.0 11.0 0.00 0.00 0.00 84 152.2
20260507045844 46 0 0.0 11.0 0.00 0.00 0.01 84 152.3
20260507043755 46 0 0.0 11.0 0.00 0.00 0.01 84 152.2
20260507043254 46 0 0.0 11.0 0.00 0.00 0.01 83 152.3
20260507042753 46 0 0.0 11.0 0.00 0.00 0.01 83 152.3
20260507042252 46 0 0.0 11.0 0.00 0.00 0.01 83 152.3
20260507041751 46 0 0.0 11.0 0.00 0.00 0.01 83 152.1
20260507040735 47 0 0.0 11.0 0.00 0.00 0.01 81 152.5
20260507040235 47 0 0.0 11.0 0.00 0.00 0.01 79 152.6
20260507035734 47 0 0.0 11.0 0.00 0.00 0.01 78 152.4
20260507035233 47 0 0.0 11.0 0.00 0.00 0.01 79 152.4
20260507034216 47 0 0.0 11.0 0.00 0.00 0.01 79 152.5
20260507033715 47 0 0.0 11.0 0.00 0.00 0.01 80 152.4
20260507033214 48 0 0.0 11.0 0.00 0.00 0.01 79 152.4
20260507032713 48 0 0.0 11.0 0.00 0.00 0.01 78 152.3
20260507032212 48 0 0.0 11.0 0.00 0.00 0.01 77 152.1
20260507031155 48 0 0.0 11.0 0.00 0.00 0.01 76 152.7
20260507030654 48 0 0.0 11.0 0.00 0.00 0.01 77 152.7
20260507025637 49 0 0.0 11.0 0.00 0.00 0.01 76 152.6
20260507025136 49 0 0.0 11.0 0.00 0.00 0.01 75 152.4
20260507024636 50 0 0.0 11.0 0.00 0.00 0.01 74 152.6
20260507024135 50 0 0.0 11.0 0.00 0.00 0.01 72 152.6
20260507023634 50 0 0.0 11.0 0.00 0.00 0.01 70 152.8
20260507023133 50 0 0.0 11.0 0.00 0.00 0.01 69 153.2
20260507022633 50 0 0.0 11.0 0.00 0.00 0.01 67 153.3
20260507022132 51 0 0.0 11.0 0.00 0.00 0.01 68 153.3
20260507021631 51 0 0.0 11.0 0.00 0.00 0.01 68 153.4
20260507021131 51 0 0.0 11.0 0.00 0.00 0.01 65 154.1
20260507020631 52 0 0.0 11.0 0.00 0.00 0.01 65 154.9
20260507015058 53 1 0.0 11.0 0.00 0.00 0.01 60 158.1
20260507014557 53 1 0.0 11.0 0.00 0.00 0.01 60 158.5
20260507014057 54 1 0.0 11.0 0.00 0.00 0.01 60 159.0
20260507013557 54 1 0.0 11.0 0.00 0.00 0.01 61 159.8
20260507012540 55 1 0.0 11.0 0.00 0.00 0.01 58 162.7
20260507012039 55 1 0.0 11.0 0.00 0.00 0.01 58 165.6
20260507011538 56 1 0.0 11.0 0.00 0.00 0.01 56 170.9
20260507011038 56 1 0.0 11.0 0.00 0.00 0.01 55 180.1
20260507010539 56 1 0.0 11.0 0.00 0.00 0.01 55 197.6
20260507010037 56 1 0.0 11.0 0.00 0.00 0.01 52 230.0
20260507005536 57 1 0.0 11.0 0.00 0.00 0.01 52 291.8
20260507005035 57 1 0.0 11.0 0.00 0.00 0.01 51 411.8
20260507004534 57 0 0.0 11.0 0.00 0.00 0.01 50 652.1
20260507004033 58 0 0.0 11.0 0.00 0.00 0.01 50 1096.9
20260507003532 58 336 2.0 11.0 0.00 0.00 0.01 49 963.9
20260507003031 58 356 0.0 11.0 0.00 0.00 0.01 48 1056.7
20260507002015 58 0 3.0 11.0 0.00 0.00 0.01 46 626.9
20260507001514 58 8 2.0 11.0 0.00 0.00 0.01 47 556.4
20260507001014 59 9 2.0 11.0 0.00 0.00 0.01 45 449.5
20260507000513 59 13 1.0 11.0 0.00 0.00 0.01 43 569.9
20260507000012 59 347 2.0 11.0 0.00 0.00 0.01 46 941.8
20260506234956 59 5 3.0 11.0 0.00 0.00 0.01 44 669.9
20260506234455 59 6 3.0 11.0 0.00 0.00 0.01 43 524.5
20260506233954 59 42 3.0 11.0 0.00 0.00 0.01 44 476.1
20260506233453 60 14 2.0 11.0 0.00 0.00 0.01 43 617.4
20260506232952 60 39 4.0 11.0 0.00 0.00 0.01 44 692.2
20260506232451 60 359 3.0 11.0 0.00 0.00 0.01 44 804.9
20260506231950 60 357 2.0 11.0 0.00 0.00 0.01 44 928.9
20260506231449 61 353 2.0 11.0 0.00 0.00 0.01 44 794.8
20260506230948 61 338 2.0 11.0 0.00 0.00 0.01 44 679.4
20260506230447 61 13 1.0 11.0 0.00 0.00 0.01 43 586.5
20260506225946 61 5 2.0 11.0 0.00 0.00 0.01 43 798.0
20260506225445 61 344 2.0 11.0 0.00 0.00 0.01 44 805.8
20260506224944 61 347 2.0 11.0 0.00 0.00 0.01 44 669.3
20260506223927 61 359 2.0 11.0 0.00 0.00 0.01 45 491.5
20260506223426 61 37 3.0 11.0 0.00 0.00 0.01 43 363.2
20260506222925 61 22 3.0 11.0 0.00 0.00 0.01 43 372.2
20260506222424 61 25 3.0 11.0 0.00 0.00 0.01 44 413.4
20260506221924 61 19 3.0 11.0 0.00 0.00 0.01 43 483.1
20260506221423 61 22 3.0 11.0 0.00 0.00 0.01 43 389.4
20260506220922 61 16 2.0 11.0 0.00 0.00 0.01 45 458.5
20260506215905 61 31 5.0 11.0 0.00 0.00 0.01 43 694.3
20260506215405 61 323 2.0 12.0 0.00 0.00 0.01 45 843.1
20260506214904 61 351 2.0 12.0 0.00 0.00 0.01 44 720.5
20260506214403 61 352 3.0 12.0 0.00 0.00 0.01 44 762.2
20260506212830 62 0 4.0 12.0 0.00 0.00 0.01 44 841.4
20260506212329 62 357 4.0 12.0 0.00 0.00 0.01 43 769.5
20260506211828 62 1 3.0 12.0 0.00 0.00 0.01 44 649.3
20260506210811 62 351 3.0 12.0 0.00 0.00 0.01 44 648.8
20260506205754 62 27 4.0 12.0 0.00 0.00 0.01 43 433.2
20260506205253 63 40 5.0 12.0 0.00 0.00 0.01 41 516.1
20260506204752 63 355 3.0 11.0 0.00 0.00 0.01 44 671.8
20260506204251 63 359 4.0 11.0 0.00 0.00 0.01 46 659.8
20260506203235 64 28 3.0 11.0 0.00 0.00 0.01 39 542.5
20260506202735 64 350 5.0 11.0 0.00 0.00 0.01 42 693.2
20260506202234 64 31 2.0 11.0 0.00 0.00 0.01 42 534.3
20260506201733 65 1 3.0 11.0 0.00 0.00 0.01 41 658.7
20260506201232 65 6 3.0 11.0 0.00 0.00 0.01 41 718.5
20260506195659 64 353 3.0 11.0 0.00 0.00 0.01 41 603.5
20260506195158 64 15 2.0 11.0 0.00 0.00 0.01 41 517.0
20260506194657 64 32 3.0 12.0 0.00 0.00 0.01 38 490.1
20260506194156 65 18 4.0 12.0 0.00 0.00 0.01 39 545.7
20260506193149 65 25 4.0 11.0 0.00 0.00 0.01 38 576.5
20260506192648 66 354 3.0 11.0 0.00 0.00 0.01 40 644.3
20260506192147 66 317 3.0 11.0 0.00 0.00 0.01 40 673.4
20260506191646 66 15 3.0 11.0 0.00 0.00 0.01 46 632.6
20260506191145 65 17 1.0 11.0 0.00 0.00 0.01 44 606.8
20260506190645 66 46 5.0 11.0 0.00 0.00 0.01 43 652.0
20260506190143 65 3 3.0 11.0 0.00 0.00 0.01 44 641.9
20260506185643 65 21 3.0 11.0 0.00 0.00 0.01 43 519.3
20260506185142 65 13 4.0 11.0 0.00 0.00 0.01 44 576.3
20260506184640 66 2 4.0 11.0 0.00 0.00 0.01 41 680.6
20260506184139 66 348 4.0 11.0 0.00 0.00 0.01 42 684.6
20260506183639 66 338 1.0 11.0 0.00 0.00 0.01 45 663.9
20260506183137 65 347 1.0 11.0 0.00 0.00 0.01 44 878.4
20260506182120 64 32 3.0 11.0 0.00 0.00 0.01 46 590.7
20260506181620 64 46 6.0 12.0 0.00 0.00 0.01 41 558.3
20260506181118 65 7 5.0 12.0 0.00 0.00 0.01 41 744.8
20260506180617 64 354 5.0 12.0 0.00 0.00 0.01 44 797.2
20260506180117 63 356 3.0 12.0 0.00 0.00 0.01 46 719.0
20260506175615 63 7 3.0 12.0 0.00 0.00 0.01 45 725.1
20260506175115 63 330 4.0 12.0 0.00 0.00 0.01 45 795.8
20260506174614 62 329 3.0 12.0 0.00 0.00 0.01 44 688.5
20260506173558 62 28 3.0 12.0 0.00 0.00 0.01 49 485.6
20260506173057 62 33 3.0 12.0 0.00 0.00 0.01 46 639.4
20260506172556 62 355 3.0 12.0 0.00 0.00 0.01 48 718.0
20260506172055 62 355 4.0 12.0 0.00 0.00 0.01 48 710.7
20260506171555 62 356 4.0 14.0 0.00 0.00 0.01 50 634.5
20260506171053 61 9 4.0 14.0 0.00 0.00 0.01 49 673.2
20260506170553 61 16 3.0 11.0 0.00 0.00 0.01 50 731.4
20260506170052 61 32 2.0 11.0 0.00 0.00 0.01 52 626.1
20260506165036 60 7 4.0 11.0 0.00 0.00 0.01 51 587.7
20260506164536 60 5 4.0 11.0 0.00 0.00 0.01 56 665.5
20260506164035 59 18 2.0 11.0 0.00 0.00 0.01 58 595.8
20260506163020 59 22 2.0 11.0 0.00 0.00 0.01 56 485.1
20260506162519 59 18 2.0 11.0 0.00 0.00 0.01 58 660.3
20260506162019 58 337 2.0 11.0 0.00 0.00 0.01 57 812.0
20260506161518 58 9 2.0 11.0 0.00 0.00 0.01 55 911.4
20260506161018 58 346 4.0 11.0 0.00 0.00 0.01 62 969.7
20260506160517 58 331 2.0 11.0 0.00 0.00 0.01 62 916.1
20260506155501 58 4 2.0 11.0 0.00 0.00 0.01 63 665.7
20260506155001 58 9 2.0 11.0 0.00 0.00 0.01 62 627.8
20260506154501 58 5 4.0 11.0 0.00 0.00 0.01 59 758.7
20260506154001 57 357 1.0 11.0 0.00 0.00 0.01 62 865.7
20260506153501 57 353 2.0 11.0 0.00 0.00 0.01 64 913.2
20260506153001 57 323 1.0 11.0 0.00 0.00 0.01 65 871.7
20260506152501 57 11 4.0 11.0 0.00 0.00 0.01 64 684.5
20260506151446 57 349 3.0 11.0 0.00 0.00 0.01 62 782.4
20260506150945 57 325 2.0 11.0 0.00 0.00 0.01 61 713.1
20260506150445 57 335 2.0 11.0 0.00 0.00 0.01 67 594.0
20260506144914 57 14 2.0 11.0 0.00 0.00 0.01 66 558.6
20260506144413 56 350 4.0 11.0 0.00 0.00 0.01 68 660.6
20260506143913 56 0 1.0 11.0 0.00 0.00 0.01 71 507.3
20260506143413 56 350 3.0 11.0 0.00 0.00 0.01 72 695.2
20260506142912 55 0 3.0 11.0 0.00 0.00 0.01 70 688.2
20260506142412 55 359 2.0 11.0 0.00 0.00 0.01 72 752.5
20260506141911 55 346 1.0 11.0 0.00 0.00 0.01 73 883.9
20260506141410 54 333 1.0 11.0 0.00 0.00 0.01 76 824.9
20260506140910 54 357 1.0 11.0 0.00 0.00 0.01 76 594.9
20260506140409 54 0 0.0 11.0 0.00 0.00 0.01 74 710.0
20260506135353 52 308 1.0 11.0 0.00 0.00 0.01 81 896.4
20260506134852 52 55 0.0 11.0 0.00 0.00 0.01 83 781.7